DR0T Weather Reports


time (UTC)temp
C
wind
direction
speed
KPH
gust
KPH
rain 1hr
cm
rain 24hr
cm
rain mn
cm
humidity
%
barometer
mb
20260503025224 15 0.0 0.0 0.00 0.00 0.00 52 1016.7
20260503024722 14 0.0 0.0 0.00 0.00 0.00 53 1016.8
20260503024221 15 0.0 0.0 0.00 0.00 0.00 52 1016.8
20260503023724 15 0.0 0.0 0.00 0.00 0.00 52 1016.9
20260503023218 15 0.0 0.0 0.00 0.00 0.00 51 1016.9
20260503022717 15 0.0 0.0 0.00 0.00 0.00 51 1016.8
20260503022216 15 0.0 0.0 0.00 0.00 0.00 51 1016.8
20260503021735 15 0.0 0.0 0.00 0.00 0.00 50 1016.9
20260503021233 15 0.0 0.0 0.00 0.00 0.00 50 1017.0
20260503020734 15 0.0 0.0 0.00 0.00 0.00 49 1016.9
20260503020235 15 0.0 0.0 0.00 0.00 0.00 49 1017.0
20260503015730 16 0.0 0.0 0.00 0.00 0.00 50 1017.0
20260503015231 16 0.0 0.0 0.00 0.00 0.00 49 1016.9
20260503014727 16 175 0.0 1.6 0.00 0.00 0.00 49 1017.1
20260503014225 16 0.0 0.0 0.00 0.00 0.00 48 1017.0
20260503013724 16 0.0 0.0 0.00 0.00 0.00 48 1017.1
20260503013222 16 0.0 0.0 0.00 0.00 0.00 49 1017.1
20260503012721 16 0.0 0.0 0.00 0.00 0.00 49 1017.1
20260503012221 16 0.0 0.0 0.00 0.00 0.00 49 1017.0
20260503011718 16 0.0 0.0 0.00 0.00 0.00 49 1017.1
20260503011219 16 0.0 0.0 0.00 0.00 0.00 49 1017.1
20260503010716 15 0.0 0.0 0.00 0.00 0.00 51 1017.2
20260503010236 15 0.0 0.0 0.00 0.00 0.00 52 1017.1
20260503005735 15 0.0 0.0 0.00 0.00 0.00 52 1017.2
20260503005231 15 0.0 0.0 0.00 0.00 0.00 51 1017.2
20260503004730 16 0.0 0.0 0.00 0.00 0.00 48 1017.2
20260503004229 16 0.0 0.0 0.00 0.00 0.00 46 1017.3
20260503003728 16 0.0 0.0 0.00 0.00 0.00 45 1017.3
20260503003228 16 0.0 0.0 0.00 0.00 0.00 47 1017.3
20260503002725 16 0.0 0.0 0.00 0.00 0.00 47 1017.4
20260503002223 17 0.0 0.0 0.00 0.00 0.00 45 1017.3
20260503001726 18 0.0 0.0 0.00 0.00 0.00 42 1017.3
20260503001221 18 103 1.6 3.2 0.00 0.00 0.00 41 1017.4
20260503000719 17 103 1.6 3.2 0.00 0.00 0.00 42 1017.4
20260503000218 17 0.0 0.0 0.00 0.00 0.00 43 1017.5
20260502235720 17 0.0 0.0 0.00 0.00 0.00 42 1017.6
20260502235235 17 0.0 0.0 0.00 0.00 0.00 42 1017.6
20260502234738 18 103 0.0 1.6 0.00 0.00 0.00 41 1017.5
20260502234233 18 103 0.0 3.2 0.00 0.00 0.00 41 1017.7
20260502233731 18 103 0.0 1.6 0.00 0.00 0.00 40 1017.7
20260502233229 18 103 1.6 3.2 0.00 0.00 0.00 40 1017.8
20260502232728 18 103 1.6 3.2 0.00 0.00 0.00 40 1017.7
20260502232230 18 0.0 0.0 0.00 0.00 0.00 40 1017.8
20260502231729 17 0.0 0.0 0.00 0.00 0.00 40 1017.8
20260502231224 17 0.0 0.0 0.00 0.00 0.00 40 1017.9
20260502230724 17 0.0 0.0 0.00 0.00 0.00 40 1017.7
20260502230220 17 0.0 0.0 0.00 0.00 0.00 40 1017.8
20260502225719 18 103 0.0 1.6 0.00 0.00 0.00 40 1017.9
20260502225219 18 103 1.6 1.6 0.00 0.00 0.00 40 1017.9
20260502224716 18 103 1.6 3.2 0.00 0.00 0.00 39 1017.9
20260502224237 18 0.0 0.0 0.00 0.00 0.00 39 1018.0
20260502223734 18 103 1.6 3.2 0.00 0.00 0.00 39 1018.0
20260502223233 18 103 1.6 3.2 0.00 0.00 0.00 39 1018.0
20260502222731 18 103 3.2 3.2 0.00 0.00 0.00 39 1018.0
20260502222229 18 103 3.2 4.8 0.00 0.00 0.00 40 1018.0
20260502221728 18 103 3.2 4.8 0.00 0.00 0.00 40 1018.0
20260502221229 18 103 1.6 3.2 0.00 0.00 0.00 41 1017.9
20260502220730 18 103 1.6 4.8 0.00 0.00 0.00 41 1018.1
20260502220224 18 103 1.6 3.2 0.00 0.00 0.00 41 1018.0
20260502215725 18 103 1.6 3.2 0.00 0.00 0.00 41 1018.1
20260502215222 18 103 1.6 3.2 0.00 0.00 0.00 41 1018.2
20260502214720 18 103 3.2 4.8 0.00 0.00 0.00 40 1018.1
20260502214219 18 103 4.8 4.8 0.00 0.00 0.00 40 1018.1
20260502213717 18 103 3.2 4.8 0.00 0.00 0.00 40 1018.1
20260502213216 18 103 3.2 4.8 0.00 0.00 0.00 40 1018.2
20260502212735 18 103 3.2 4.8 0.00 0.00 0.00 40 1018.1
20260502212235 18 104 3.2 4.8 0.00 0.00 0.00 40 1018.2
20260502211736 18 105 3.2 4.8 0.00 0.00 0.00 40 1018.1
20260502211231 18 103 3.2 4.8 0.00 0.00 0.00 40 1018.2
20260502210729 18 104 3.2 4.8 0.00 0.00 0.00 40 1018.3
20260502210229 18 101 4.8 4.8 0.00 0.00 0.00 40 1018.2
20260502205729 18 100 3.2 4.8 0.00 0.00 0.00 40 1018.3
20260502205227 18 98 4.8 4.8 0.00 0.00 0.00 40 1018.4
20260502204724 18 99 4.8 6.4 0.00 0.00 0.00 40 1018.4
20260502204226 18 98 4.8 6.4 0.00 0.00 0.00 40 1018.3
20260502203721 18 97 4.8 6.4 0.00 0.00 0.00 40 1018.4
20260502203222 18 101 4.8 4.8 0.00 0.00 0.00 40 1018.4
20260502202718 18 100 4.8 4.8 0.00 0.00 0.00 40 1018.5
20260502202217 18 97 4.8 6.4 0.00 0.00 0.00 40 1018.5
20260502201716 18 98 4.8 6.4 0.00 0.00 0.00 40 1018.5
20260502201235 18 99 4.8 6.4 0.00 0.00 0.00 40 1018.5
20260502200733 18 98 4.8 4.8 0.00 0.00 0.00 40 1018.6
20260502200238 18 98 4.8 6.4 0.00 0.00 0.00 40 1018.6
20260502195228 18 98 4.8 6.4 0.00 0.00 0.00 41 1018.6
20260502194726 18 98 4.8 6.4 0.00 0.00 0.00 41 1018.6
20260502194229 19 100 4.8 4.8 0.00 0.00 0.00 41 1018.5
20260502193723 18 101 4.8 4.8 0.00 0.00 0.00 42 1018.6
20260502193222 18 105 3.2 4.8 0.00 0.00 0.00 42 1018.6
20260502192720 18 97 3.2 4.8 0.00 0.00 0.00 42 1018.6
20260502192222 18 103 4.8 6.4 0.00 0.00 0.00 42 1018.5
20260502191719 19 95 3.2 6.4 0.00 0.00 0.00 42 1018.6
20260502191215 19 95 3.2 4.8 0.00 0.00 0.00 41 1018.4
20260502190734 19 111 3.2 4.8 0.00 0.00 0.00 41 1018.6
20260502190233 18 100 3.2 4.8 0.00 0.00 0.00 42 1018.6
20260502185738 19 104 4.8 6.4 0.00 0.00 0.00 43 1018.6
20260502185231 19 99 4.8 6.4 0.00 0.00 0.00 43 1018.6
20260502184729 19 99 4.8 6.4 0.00 0.00 0.00 43 1018.5
20260502184227 19 105 3.2 4.8 0.00 0.00 0.00 44 1018.4
20260502183726 19 105 3.2 4.8 0.00 0.00 0.00 44 1018.5
20260502183228 19 114 3.2 4.8 0.00 0.00 0.00 43 1018.4
20260502182724 20 109 3.2 4.8 0.00 0.00 0.00 43 1018.5
20260502182221 20 116 3.2 4.8 0.00 0.00 0.00 43 1018.5
20260502181720 20 125 3.2 4.8 0.00 0.00 0.00 42 1018.5
20260502181219 20 111 3.2 6.4 0.00 0.00 0.00 42 1018.4
20260502180716 20 112 3.2 6.4 0.00 0.00 0.00 43 1018.4
20260502180217 20 106 3.2 4.8 0.00 0.00 0.00 43 1018.4
20260502170220 21 132 1.6 4.8 0.00 0.00 0.00 42 1018.7
20260502164234 22 110 3.2 9.7 0.00 0.00 0.00 43 1018.8
20260502163738 21 127 3.2 9.7 0.00 0.00 0.00 42 1018.9
20260502163230 21 105 3.2 6.4 0.00 0.00 0.00 42 1018.9
20260502162729 21 112 4.8 9.7 0.00 0.00 0.00 41 1018.9
20260502162228 22 114 4.8 9.7 0.00 0.00 0.00 42 1019.0
20260502161726 22 117 3.2 6.4 0.00 0.00 0.00 42 1019.1
20260502161225 22 106 1.6 4.8 0.00 0.00 0.00 40 1019.2
20260502160730 22 106 3.2 11.3 0.00 0.00 0.00 42 1019.3
20260502160222 22 108 4.8 9.7 0.00 0.00 0.00 41 1019.3
20260502152232 23 198 3.2 4.8 0.00 0.00 0.00 38 1019.7
20260502151731 23 186 3.2 9.7 0.00 0.00 0.00 37 1019.8
20260502151229 23 163 0.0 3.2 0.00 0.00 0.00 37 1020.0
20260502150732 24 183 3.2 4.8 0.00 0.00 0.00 36 1019.9
20260502150227 25 142 1.6 4.8 0.00 0.00 0.00 35 1020.0
20260502130735 22 201 6.4 11.3 0.00 0.00 0.00 36 1021.4
20260502130233 23 189 3.2 6.4 0.00 0.00 0.00 37 1021.5
20260502123727 22 103 1.6 9.7 0.00 0.00 0.00 37 1021.5
20260502123229 22 112 3.2 6.4 0.00 0.00 0.00 38 1021.7
20260502122726 21 195 1.6 4.8 0.00 0.00 0.00 38 1021.7
20260502122223 22 192 4.8 9.7 0.00 0.00 0.00 38 1021.6
20260502121721 21 116 1.6 4.8 0.00 0.00 0.00 37 1021.8
20260502121220 21 165 3.2 4.8 0.00 0.00 0.00 37 1021.8
20260502120723 21 143 1.6 6.4 0.00 0.00 0.00 38 1021.9
20260502120218 21 127 3.2 9.7 0.00 0.00 0.00 39 1021.9
20260502115716 21 120 1.6 4.8 0.00 0.00 0.00 38 1022.0
20260502115235 20 111 1.6 3.2 0.00 0.00 0.00 39 1022.0
20260502114733 21 112 4.8 9.7 0.00 0.00 0.00 39 1022.1
20260502114234 20 124 1.6 11.3 0.00 0.00 0.00 41 1022.1
20260502113731 21 105 3.2 9.7 0.00 0.00 0.00 40 1022.3
20260502113230 21 132 3.2 6.4 0.00 0.00 0.00 41 1022.3
20260502112728 20 172 0.0 3.2 0.00 0.00 0.00 41 1022.3
20260502112231 20 168 1.6 3.2 0.00 0.00 0.00 42 1022.5
20260502111725 19 180 1.6 3.2 0.00 0.00 0.00 41 1022.5
20260502111224 20 184 3.2 6.4 0.00 0.00 0.00 41 1022.5
20260502110723 20 184 1.6 6.4 0.00 0.00 0.00 40 1022.6
20260502110222 20 100 0.0 3.2 0.00 0.00 0.00 40 1022.6
20260502105721 20 103 0.0 3.2 0.00 0.00 0.00 41 1022.7
20260502105221 20 107 1.6 9.7 0.00 0.00 0.00 42 1022.8
20260502104717 20 124 3.2 9.7 0.00 0.00 0.00 41 1022.8
20260502104216 19 123 1.6 6.4 0.00 0.00 0.00 41 1022.9
20260502103734 18 168 1.6 4.8 0.00 0.00 0.00 42 1022.8
20260502103235 19 186 4.8 9.7 0.00 0.00 0.00 42 1023.0
20260502102731 18 178 1.6 4.8 0.00 0.00 0.00 43 1022.9
20260502102230 18 184 3.2 6.4 0.00 0.00 0.00 42 1022.9
20260502101728 18 183 0.0 1.6 0.00 0.00 0.00 41 1022.9
20260502101231 18 184 1.6 4.8 0.00 0.00 0.00 43 1023.1
20260502100730 18 183 1.6 4.8 0.00 0.00 0.00 43 1023.1
20260502100223 18 183 3.2 6.4 0.00 0.00 0.00 43 1023.2
20260502091228 17 184 4.8 6.4 0.00 0.00 0.00 48 1023.6
20260502090231 16 0.0 0.0 0.00 0.00 0.00 47 1023.5
20260502071218 16 107 1.6 4.8 0.00 0.00 0.00 46 1023.6
20260502070717 16 158 1.6 3.2 0.00 0.00 0.00 48 1023.6
20260502070235 16 125 1.6 4.8 0.00 0.00 0.00 48 1023.6
20260502065736 15 119 3.2 6.4 0.00 0.00 0.00 49 1023.6
20260502065232 15 107 4.8 11.3 0.00 0.00 0.00 50 1023.6
20260502064733 15 108 4.8 9.7 0.00 0.00 0.00 50 1023.6
20260502064229 15 119 4.8 6.4 0.00 0.00 0.00 50 1023.6
20260502063728 15 105 4.8 11.3 0.00 0.00 0.00 52 1023.5
20260502063227 15 99 6.4 11.3 0.00 0.00 0.00 51 1023.5
20260502062727 15 100 4.8 9.7 0.00 0.00 0.00 52 1023.4
20260502062224 15 96 6.4 9.7 0.00 0.00 0.00 51 1023.5
20260502061725 15 98 4.8 9.7 0.00 0.00 0.00 51 1023.6
20260502061222 15 107 3.2 6.4 0.00 0.00 0.00 52 1023.6
20260502060721 14 97 4.8 11.3 0.00 0.00 0.00 54 1023.6
20260502060219 13 100 6.4 12.9 0.00 0.00 0.00 53 1023.5
20260502055718 13 97 6.4 11.3 0.00 0.00 0.00 54 1023.6
20260502055219 13 97 6.4 12.9 0.00 0.00 0.00 54 1023.5
20260502054716 13 103 4.8 9.7 0.00 0.00 0.00 54 1023.7
20260502054234 13 102 4.8 11.3 0.00 0.00 0.00 54 1023.6
20260502053733 12 97 3.2 9.7 0.00 0.00 0.00 55 1023.7
20260502053238 12 96 4.8 12.9 0.00 0.00 0.00 55 1023.5
20260502052731 12 96 6.4 11.3 0.00 0.00 0.00 55 1023.6
20260502052230 12 98 4.8 14.5 0.00 0.00 0.00 56 1023.5
20260502051728 12 95 3.2 12.9 0.00 0.00 0.00 56 1023.5
20260502051230 12 94 3.2 9.7 0.00 0.00 0.00 56 1023.5
20260502050731 12 95 3.2 9.7 0.00 0.00 0.00 56 1023.6
20260502050224 12 92 3.2 9.7 0.00 0.00 0.00 55 1023.6
20260502045727 12 93 4.8 9.7 0.00 0.00 0.00 54 1023.7
20260502045226 12 97 4.8 6.4 0.00 0.00 0.00 53 1023.7
20260502044724 12 98 4.8 6.4 0.00 0.00 0.00 53 1023.6
20260502044219 12 105 1.6 4.8 0.00 0.00 0.00 54 1023.7
20260502043720 12 99 3.2 4.8 0.00 0.00 0.00 53 1023.7
20260502043217 12 95 4.8 6.4 0.00 0.00 0.00 53 1023.6
20260502042715 12 99 4.8 9.7 0.00 0.00 0.00 54 1023.6
20260502042234 12 96 6.4 11.3 0.00 0.00 0.00 53 1023.7
20260502041731 12 95 8.0 12.9 0.00 0.00 0.00 52 1023.8
20260502041232 12 94 6.4 9.7 0.00 0.00 0.00 53 1023.8
20260502040732 12 97 4.8 9.7 0.00 0.00 0.00 52 1023.9
20260502040227 12 109 4.8 6.4 0.00 0.00 0.00 51 1023.8
20260502035725 12 97 4.8 6.4 0.00 0.00 0.00 51 1023.9
20260502035224 12 107 4.8 9.7 0.00 0.00 0.00 51 1023.8
20260502034723 12 117 4.8 9.7 0.00 0.00 0.00 51 1023.9
20260502034226 12 104 4.8 9.7 0.00 0.00 0.00 51 1023.8
20260502033724 12 114 4.8 12.9 0.00 0.00 0.00 51 1023.9
20260502033219 12 112 6.4 12.9 0.00 0.00 0.00 51 1023.9
20260502032717 12 108 6.4 11.3 0.00 0.00 0.00 53 1023.9
20260502032216 12 103 4.8 9.7 0.00 0.00 0.00 52 1023.9
20260502031735 12 91 4.8 9.7 0.00 0.00 0.00 53 1023.9
20260502031238 12 101 4.8 11.3 0.00 0.00 0.00 52 1023.9
20260502030732 12 106 4.8 9.7 0.00 0.00 0.00 52 1023.8
20260502030232 12 101 6.4 17.7 0.00 0.00 0.00 52 1023.8
20260502025730 12 91 8.0 12.9 0.00 0.00 0.00 52 1023.8